R72107 ETIC-ETIK

Flight info

Callsign R72107
Flight time 0h 47m
Altitude 6000
Route ELGOT1A ELGOT DCT NUB DCT EDDN/N0120A4000 DCT IK402 DCT
Aircraft EC45/L-SDE3FGHIRTWY/S

Departure

Time 2026-04-24 15:12
Airport Grafenwöhr Army Air Field (ETIC)

Arrival

Time 2026-04-24 15:59
Airport Illesheim Army Heliport (ETIK)
Time Latitude Longitude Altitude Speed Heading
2026-04-24 14:34 49.69687 11.94066 1360 ft 0 kts 323°
2026-04-24 15:10 49.69688 11.94065 1367 ft 3 kts 327°
2026-04-24 15:10 49.69713 11.94047 1368 ft 3 kts 38°
2026-04-24 15:10 49.69728 11.94082 1369 ft 4 kts 106°
2026-04-24 15:10 49.69704 11.94119 1368 ft 7 kts 145°
2026-04-24 15:11 49.69661 11.94169 1367 ft 9 kts 144°
2026-04-24 15:11 49.69648 11.94240 1370 ft 9 kts 342°
2026-04-24 15:11 49.69780 11.94118 1475 ft 47 kts 318°
2026-04-24 15:11 49.70160 11.93701 1631 ft 80 kts 321°
2026-04-24 15:12 49.70659 11.93138 1766 ft 95 kts 322°
2026-04-24 15:12 49.71877 11.91970 2125 ft 112 kts 344°
2026-04-24 15:12 49.72671 11.91830 2215 ft 118 kts 352°
2026-04-24 15:13 49.73496 11.91751 2298 ft 120 kts 351°
2026-04-24 15:13 49.74329 11.91675 2384 ft 119 kts 353°
2026-04-24 15:13 49.75148 11.91603 2492 ft 117 kts 353°
2026-04-24 15:13 49.75959 11.91531 2599 ft 116 kts 355°
2026-04-24 15:14 49.76492 11.91484 2672 ft 115 kts 354°
2026-04-24 15:14 49.77298 11.91411 2737 ft 113 kts 353°
2026-04-24 15:14 49.78063 11.91344 2940 ft 108 kts 353°
2026-04-24 15:14 49.78800 11.91281 3192 ft 104 kts 352°
2026-04-24 15:15 49.79498 11.91221 3482 ft 101 kts 353°
2026-04-24 15:15 49.80189 11.91162 3784 ft 99 kts 352°
2026-04-24 15:15 49.80866 11.91103 4061 ft 96 kts 353°
2026-04-24 15:15 49.81532 11.91044 4318 ft 95 kts 354°
2026-04-24 15:16 49.82190 11.90985 4612 ft 94 kts 352°
2026-04-24 15:16 49.82841 11.90926 4965 ft 93 kts 352°
2026-04-24 15:16 49.83460 11.90716 5138 ft 90 kts 328°
2026-04-24 15:16 49.83796 11.89928 5039 ft 93 kts 286°
2026-04-24 15:17 49.83631 11.88916 5004 ft 105 kts 243°
2026-04-24 15:17 49.83031 11.88191 4989 ft 111 kts 223°
2026-04-24 15:17 49.82436 11.87462 4974 ft 110 kts 225°
2026-04-24 15:17 49.81819 11.86660 4954 ft 122 kts 227°
2026-04-24 15:18 49.81170 11.85825 4959 ft 124 kts 224°
2026-04-24 15:18 49.80458 11.84901 4967 ft 135 kts 225°
2026-04-24 15:18 49.79760 11.84028 4966 ft 131 kts 223°
2026-04-24 15:18 49.79023 11.83094 4957 ft 134 kts 226°
2026-04-24 15:19 49.78310 11.82209 4936 ft 134 kts 225°
2026-04-24 15:19 49.77577 11.81289 4956 ft 135 kts 224°
2026-04-24 15:19 49.76854 11.80385 4961 ft 132 kts 227°
2026-04-24 15:19 49.76152 11.79451 4959 ft 134 kts 231°
2026-04-24 15:20 49.75518 11.78407 4964 ft 132 kts 232°
2026-04-24 15:20 49.74891 11.77376 4965 ft 131 kts 234°
2026-04-24 15:20 49.74272 11.76361 4975 ft 130 kts 231°
2026-04-24 15:20 49.73648 11.75339 4964 ft 131 kts 233°
2026-04-24 15:21 49.73018 11.74302 4970 ft 132 kts 232°
2026-04-24 15:21 49.72397 11.73286 4968 ft 129 kts 234°
2026-04-24 15:21 49.71772 11.72255 4969 ft 131 kts 233°
2026-04-24 15:21 49.71153 11.71238 4976 ft 130 kts 234°
2026-04-24 15:22 49.70527 11.70224 4962 ft 133 kts 233°
2026-04-24 15:22 49.69890 11.69184 4975 ft 132 kts 233°
2026-04-24 15:22 49.69262 11.68156 4964 ft 133 kts 232°
2026-04-24 15:23 49.67997 11.66076 4972 ft 132 kts 232°
2026-04-24 15:23 49.66730 11.64002 4980 ft 132 kts 231°
2026-04-24 15:23 49.66100 11.62975 4975 ft 131 kts 234°
2026-04-24 15:24 49.64218 11.59892 4975 ft 132 kts 232°
2026-04-24 15:25 49.62954 11.57832 4985 ft 133 kts 232°
2026-04-24 15:25 49.61701 11.55801 4984 ft 132 kts 233°
2026-04-24 15:26 49.59841 11.52771 4987 ft 128 kts 234°
2026-04-24 15:27 49.57980 11.49737 4985 ft 131 kts 233°
2026-04-24 15:27 49.56105 11.46768 4159 ft 125 kts 233°
2026-04-24 15:28 49.53660 11.42758 3992 ft 128 kts 232°
2026-04-24 15:29 49.52444 11.40758 4007 ft 124 kts 233°
2026-04-24 15:30 49.50633 11.37811 3991 ft 126 kts 233°
2026-04-24 15:31 49.48155 11.33828 4005 ft 126 kts 232°
2026-04-24 15:32 49.47780 11.29141 3933 ft 114 kts 281°
2026-04-24 15:33 49.48215 11.24549 3108 ft 97 kts 280°
2026-04-24 15:33 49.48528 11.21392 2674 ft 98 kts 279°
2026-04-24 15:34 49.48732 11.19354 2403 ft 97 kts 283°
2026-04-24 15:35 49.49039 11.16254 2000 ft 102 kts 279°
2026-04-24 15:35 49.49252 11.14061 1700 ft 105 kts 282°
2026-04-24 15:35 49.49360 11.12961 1543 ft 102 kts 282°
2026-04-24 15:36 49.49463 11.11910 1396 ft 100 kts 284°
2026-04-24 15:36 49.49668 11.09839 1300 ft 101 kts 281°
2026-04-24 15:36 49.49770 11.08793 1420 ft 96 kts 283°
2026-04-24 15:37 49.49872 11.07766 1513 ft 102 kts 282°
2026-04-24 15:37 49.49979 11.06683 1658 ft 100 kts 282°
2026-04-24 15:37 49.50080 11.05665 1759 ft 97 kts 283°
2026-04-24 15:37 49.50187 11.04636 1986 ft 95 kts 282°
2026-04-24 15:38 49.50291 11.03657 2262 ft 94 kts 283°
2026-04-24 15:38 49.50399 11.02653 2541 ft 95 kts 284°
2026-04-24 15:38 49.50509 11.01623 2807 ft 97 kts 284°
2026-04-24 15:38 49.50618 11.00595 3075 ft 99 kts 283°
2026-04-24 15:39 49.50729 10.99545 3341 ft 100 kts 283°
2026-04-24 15:39 49.50842 10.98475 3593 ft 101 kts 283°
2026-04-24 15:39 49.50953 10.97417 3876 ft 102 kts 283°
2026-04-24 15:39 49.51060 10.96326 4004 ft 104 kts 280°
2026-04-24 15:40 49.51099 10.95209 4009 ft 108 kts 276°
2026-04-24 15:40 49.51133 10.93944 3952 ft 125 kts 276°
2026-04-24 15:40 49.51160 10.92631 4004 ft 121 kts 275°
2026-04-24 15:40 49.51187 10.91303 3996 ft 124 kts 276°
2026-04-24 15:41 49.51212 10.89999 3993 ft 123 kts 276°
2026-04-24 15:41 49.51238 10.88709 4010 ft 119 kts 276°
2026-04-24 15:41 49.51265 10.87408 4000 ft 123 kts 276°
2026-04-24 15:41 49.51292 10.86112 4006 ft 120 kts 275°
2026-04-24 15:42 49.51320 10.84807 4007 ft 122 kts 276°
2026-04-24 15:42 49.51346 10.83515 4000 ft 120 kts 277°
2026-04-24 15:42 49.51375 10.82239 4002 ft 119 kts 277°
2026-04-24 15:42 49.51404 10.80968 4001 ft 120 kts 276°
2026-04-24 15:43 49.51433 10.79679 3994 ft 121 kts 275°
2026-04-24 15:43 49.51462 10.78379 3998 ft 120 kts 276°
2026-04-24 15:43 49.51490 10.77096 3998 ft 120 kts 276°
2026-04-24 15:43 49.51518 10.75816 4006 ft 120 kts 275°
2026-04-24 15:44 49.51546 10.74522 4016 ft 121 kts 275°
2026-04-24 15:44 49.51573 10.73235 4017 ft 120 kts 276°
2026-04-24 15:44 49.51598 10.71958 4020 ft 121 kts 275°
2026-04-24 15:44 49.51624 10.70673 4016 ft 121 kts 276°
2026-04-24 15:45 49.51653 10.69363 4013 ft 124 kts 275°
2026-04-24 15:45 49.51679 10.68059 4029 ft 120 kts 276°
2026-04-24 15:45 49.51706 10.66761 4017 ft 122 kts 275°
2026-04-24 15:45 49.51732 10.65466 4028 ft 121 kts 275°
2026-04-24 15:46 49.51761 10.64147 4013 ft 124 kts 275°
2026-04-24 15:46 49.51788 10.62836 4024 ft 123 kts 274°
2026-04-24 15:46 49.51814 10.61515 4022 ft 122 kts 276°
2026-04-24 15:46 49.51840 10.60213 4020 ft 121 kts 276°
2026-04-24 15:47 49.51866 10.58923 4021 ft 120 kts 276°
2026-04-24 15:47 49.51894 10.57625 4020 ft 122 kts 275°
2026-04-24 15:47 49.51919 10.56467 4020 ft 123 kts 275°
2026-04-24 15:48 49.51920 10.56409 4020 ft 123 kts 275°
2026-04-24 15:48 49.51952 10.55089 4006 ft 123 kts 276°
2026-04-24 15:48 49.51971 10.53829 3962 ft 109 kts 273°
2026-04-24 15:49 49.51969 10.53537 3969 ft 100 kts 274°
2026-04-24 15:49 49.52020 10.52638 3865 ft 75 kts 295°
2026-04-24 15:49 49.52407 10.52044 3822 ft 85 kts 329°
2026-04-24 15:49 49.53008 10.51998 3812 ft 92 kts 11°
2026-04-24 15:50 49.53510 10.52667 3819 ft 102 kts 53°
2026-04-24 15:50 49.53810 10.53636 3822 ft 100 kts 57°
2026-04-24 15:50 49.54120 10.54610 3841 ft 101 kts 56°
2026-04-24 15:50 49.54430 10.55573 3829 ft 101 kts 56°
2026-04-24 15:51 49.54741 10.56537 3820 ft 100 kts 56°
2026-04-24 15:51 49.55051 10.57498 3825 ft 100 kts 55°
2026-04-24 15:51 49.55358 10.58456 3811 ft 102 kts 57°
2026-04-24 15:51 49.55670 10.59454 3813 ft 103 kts 61°
2026-04-24 15:52 49.55698 10.60555 3811 ft 109 kts 110°
2026-04-24 15:52 49.55144 10.61245 3814 ft 103 kts 176°
2026-04-24 15:52 49.54523 10.60910 3811 ft 92 kts 234°
2026-04-24 15:52 49.54240 10.60071 3837 ft 86 kts 250°
2026-04-24 15:53 49.53962 10.59249 3827 ft 87 kts 252°
2026-04-24 15:53 49.53691 10.58414 3834 ft 87 kts 252°
2026-04-24 15:53 49.53424 10.57589 3818 ft 87 kts 252°
2026-04-24 15:53 49.53154 10.56748 3825 ft 87 kts 250°
2026-04-24 15:54 49.52886 10.55916 3817 ft 87 kts 251°
2026-04-24 15:54 49.52618 10.55081 3814 ft 87 kts 250°
2026-04-24 15:54 49.52346 10.54234 3812 ft 89 kts 252°
2026-04-24 15:54 49.52072 10.53376 3824 ft 88 kts 250°
2026-04-24 15:55 49.51802 10.52551 3813 ft 86 kts 251°
2026-04-24 15:55 49.51535 10.51720 3821 ft 88 kts 249°
2026-04-24 15:55 49.51261 10.50867 3820 ft 89 kts 251°
2026-04-24 15:55 49.50988 10.50048 3520 ft 85 kts 251°
2026-04-24 15:56 49.50719 10.49254 3131 ft 83 kts 252°
2026-04-24 15:56 49.50456 10.48463 2749 ft 83 kts 253°
2026-04-24 15:56 49.50196 10.47667 2499 ft 83 kts 251°
2026-04-24 15:56 49.49935 10.46845 2391 ft 88 kts 251°
2026-04-24 15:57 49.49669 10.46001 2383 ft 88 kts 251°
2026-04-24 15:57 49.49403 10.45167 2268 ft 85 kts 250°
2026-04-24 15:57 49.49230 10.44633 2171 ft 85 kts 247°
2026-04-24 15:57 49.48871 10.43513 1978 ft 90 kts 248°
2026-04-24 15:58 49.48593 10.42655 1836 ft 88 kts 249°
2026-04-24 15:58 49.48316 10.41800 1701 ft 88 kts 244°
2026-04-24 15:58 49.48135 10.41239 1588 ft 88 kts 245°
2026-04-24 15:58 49.47879 10.40393 1391 ft 84 kts 250°
2026-04-24 15:59 49.47638 10.39627 1258 ft 71 kts 252°
2026-04-24 15:59 49.47592 10.39469 1216 ft 63 kts 251°
2026-04-24 15:59 49.47525 10.39249 1160 ft 48 kts 252°
2026-04-24 16:00 49.47435 10.38957 1106 ft 20 kts 246°
2026-04-24 16:00 49.47398 10.38824 1103 ft 9 kts 291°
2026-04-24 16:00 49.47444 10.38771 1102 ft 8 kts 327°
2026-04-24 16:01 49.47459 10.38765 1104 ft 8 kts 87°
2026-04-24 16:01 49.47501 10.38885 1102 ft 16 kts 58°
2026-04-24 16:02 49.47541 10.38897 1106 ft 8 kts 334°
2026-04-24 16:02 49.47571 10.38859 1105 ft 3 kts 335°
2026-04-24 16:02 49.47578 10.38824 1096 ft 5 kts 246°
2026-04-24 16:02 49.47573 10.38805 1087 ft 0 kts 246°